Date String (YYYY-MM-DD hh:mm:ss) UTC,Instrument flags,Ambient pressure (hPa),Sample flow (lpm),Bypass flow (lpm),Sample temperature (°C),Ambient temperature (°C),ASC tube jacket temperature (°C),LED temperature (°C),Box temperature (°C),Sample RH (%),Span deviation,Mass concentration (μg/m³),Mass concentration (μg/m³),Mass concentration (μg/m³)
DateTimeUTC,F1_M11,P_M11,Q1_M11,Q2_M11,T1_M11,T2_M11,T3_M11,T4_M11,T5_M11,U1_M11,ZSPAN_M11,X2_M11,X0_M11,X1_M11
2022-01-19 14:00:00,,0827.9,4.99,0.00,21.8,21.2,00.0,30.9,23.4,15.1,-000.8,0007.82,0009.73,0007.70
2022-01-19 14:01:00,,0827.9,5.00,0.00,21.7,21.2,00.0,30.9,23.3,15.2,-001.1,0007.82,0009.78,0007.69
2022-01-19 14:02:00,,0827.8,5.02,0.00,21.7,21.1,00.0,30.9,23.3,15.2,-001.5,0007.75,0009.72,0007.63
2022-01-19 14:03:00,,0827.9,4.99,0.00,21.7,21.3,00.0,30.9,23.4,15.2,-001.5,0007.71,0009.68,0007.59
2022-01-19 14:04:00,,0828.0,4.99,0.00,21.8,22.0,00.0,30.9,23.7,15.1,-001.7,0007.64,0009.59,0007.53
2022-01-19 14:05:00,,0827.9,5.00,0.00,22.0,22.8,00.0,31.0,24.0,14.9,-001.8,0007.57,0009.51,0007.46
2022-01-19 14:06:00,,0828.0,5.00,0.00,22.1,22.9,00.0,31.0,24.1,14.8,-001.9,0007.51,0009.48,0007.40
2022-01-19 14:07:00,,0828.0,5.00,0.00,22.2,22.7,00.0,31.0,24.1,14.8,-002.0,0007.49,0009.47,0007.39
2022-01-19 14:08:00,,0827.9,4.99,0.00,22.1,22.4,00.0,31.0,23.9,14.7,-002.0,0007.53,0009.54,0007.42
2022-01-19 14:09:00,,0827.9,4.99,0.00,22.1,22.2,00.0,31.0,23.9,14.8,-002.1,0007.54,0009.55,0007.43
2022-01-19 14:10:00,,0828.1,5.01,0.00,22.1,22.0,00.0,31.0,23.8,14.8,-001.8,0007.54,0009.57,0007.42
2022-01-19 14:11:00,,0828.2,4.98,0.00,22.0,21.9,00.0,31.0,23.7,14.8,-002.0,0007.52,0009.53,0007.41
2022-01-19 14:12:00,,0828.1,5.00,0.00,22.0,21.7,00.0,31.0,23.7,14.8,-001.9,0007.48,0009.45,0007.39
2022-01-19 14:13:00,,0828.1,5.01,0.00,22.0,21.6,00.0,31.0,23.6,14.8,-001.7,0007.49,0009.71,0007.39
2022-01-19 14:14:00,,0828.1,4.99,0.00,21.9,21.5,00.0,31.0,23.5,14.8,-002.0,0007.50,0009.77,0007.42
2022-01-19 14:15:00,,0828.2,5.01,0.00,21.9,21.4,00.0,31.0,23.5,14.9,-002.0,0007.58,0009.85,0007.49
2022-01-19 14:16:00,,0828.1,4.99,0.00,21.9,21.4,00.0,31.0,23.5,14.9,-001.8,0007.65,0009.92,0007.56
2022-01-19 14:17:00,,0828.1,5.02,0.00,21.9,21.3,00.0,31.0,23.5,14.9,-001.8,0007.71,0009.96,0007.62
2022-01-19 14:18:00,,0828.4,4.99,0.00,21.8,21.3,00.0,31.0,23.4,14.9,-001.9,0007.75,0010.00,0007.65
2022-01-19 14:19:00,,0828.3,5.00,0.00,21.8,21.2,00.0,30.9,23.4,14.9,-001.8,0007.73,0009.97,0007.65
2022-01-19 14:20:00,,0828.2,4.99,0.00,21.8,21.2,00.0,30.9,23.4,14.9,-001.3,0007.71,0009.94,0007.63
2022-01-19 14:21:00,,0828.2,5.01,0.00,21.8,21.6,00.0,30.9,23.5,14.8,-001.6,0007.64,0009.88,0007.57
2022-01-19 14:22:00,,0828.3,5.00,0.00,22.0,22.4,00.0,31.0,23.9,14.7,-001.3,0007.59,0009.82,0007.52
2022-01-19 14:23:00,,0828.3,4.99,0.00,22.1,23.1,00.0,31.0,24.1,14.5,-000.9,0007.56,0009.78,0007.50
2022-01-19 14:24:00,,0828.3,5.00,0.00,22.2,22.9,00.0,31.1,24.1,14.5,-000.4,0007.55,0009.51,0007.50
2022-01-19 14:25:00,,0828.2,5.00,0.00,22.2,22.6,00.0,31.1,24.1,14.4,-000.1,0007.50,0009.43,0007.44
2022-01-19 14:26:00,,0828.3,5.00,0.00,22.2,22.4,00.0,31.1,24.0,14.4,-000.1,0007.43,0009.35,0007.37
2022-01-19 14:27:00,,0828.3,5.00,0.00,22.1,22.2,00.0,31.1,23.9,14.4,-000.0,0007.34,0009.25,0007.29
2022-01-19 14:28:00,,0828.3,5.00,0.00,22.1,22.0,00.0,31.1,23.8,14.4,0000.4,0007.28,0009.20,0007.23
2022-01-19 14:29:00,,0828.3,5.01,0.00,22.1,21.8,00.0,31.1,23.8,14.4,0001.2,0007.21,0009.11,0007.15
2022-01-19 14:30:00,,0828.3,4.99,0.00,22.0,21.7,00.0,31.1,23.7,14.4,0001.2,0007.16,0009.04,0007.11
2022-01-19 14:31:00,,0828.3,5.00,0.00,22.0,21.6,00.0,31.1,23.6,14.4,0000.5,0007.14,0009.01,0007.09
2022-01-19 14:32:00,,0828.4,5.01,0.00,22.0,21.5,00.0,31.1,23.6,14.4,0000.8,0007.13,0009.00,0007.08
2022-01-19 14:33:00,,0828.4,4.99,0.00,21.9,21.4,00.0,31.0,23.5,14.4,0000.8,0007.08,0008.95,0007.03
2022-01-19 14:34:00,,0828.4,5.02,0.00,21.9,21.4,00.0,31.0,23.5,14.4,0000.8,0007.05,0008.92,0006.99
2022-01-19 14:35:00,,0828.5,4.98,0.00,21.9,21.3,00.0,31.0,23.5,14.5,0000.3,0006.99,0008.88,0006.94
2022-01-19 14:36:00,,0828.4,5.02,0.00,21.8,21.3,00.0,31.0,23.4,14.5,0000.0,0006.95,0008.84,0006.89
2022-01-19 14:37:00,,0828.4,5.00,0.00,21.9,21.7,00.0,31.0,23.6,14.4,0000.1,0006.92,0008.82,0006.87
2022-01-19 14:38:00,,0828.5,5.00,0.00,22.0,22.4,00.0,31.0,23.9,14.3,0000.2,0006.89,0008.78,0006.84
2022-01-19 14:39:00,,0828.5,5.00,0.00,22.2,23.0,00.0,31.1,24.1,14.2,-000.0,0006.84,0008.74,0006.79
2022-01-19 14:40:00,,0828.4,5.00,0.00,22.2,22.9,00.0,31.1,24.2,14.1,-000.0,0006.80,0008.74,0006.74
2022-01-19 14:41:00,,0828.7,5.00,0.00,22.2,22.6,00.0,31.1,24.1,14.1,0000.3,0006.76,0008.72,0006.69
2022-01-19 14:42:00,,0829.1,5.00,0.00,22.2,22.4,00.0,31.1,24.0,14.1,0000.4,0006.68,0008.65,0006.61
2022-01-19 14:43:00,,0829.0,5.01,0.00,22.2,22.2,00.0,31.1,23.9,14.1,0000.1,0006.63,0008.60,0006.56
2022-01-19 14:44:00,,0829.0,4.99,0.00,22.1,22.0,00.0,31.1,23.8,14.1,0000.2,0006.61,0008.58,0006.53
2022-01-19 14:45:00,,0829.0,5.01,0.00,22.1,21.9,00.0,31.1,23.8,14.2,0000.3,0006.59,0008.55,0006.52
2022-01-19 14:46:00,,0829.0,4.98,0.00,22.1,21.8,00.0,31.1,23.7,14.2,0001.0,0006.57,0008.53,0006.50
2022-01-19 14:47:00,,0828.5,5.01,0.00,22.0,21.6,00.0,31.1,23.7,14.3,0000.8,0006.58,0008.54,0006.52
2022-01-19 14:48:00,,0828.6,5.00,0.00,22.0,21.6,00.0,31.1,23.6,14.3,0000.2,0006.58,0008.56,0006.53
2022-01-19 14:49:00,,0828.7,4.98,0.00,22.0,21.5,00.0,31.1,23.6,14.3,-000.3,0006.58,0008.55,0006.52
2022-01-19 14:50:00,,0828.6,5.00,0.00,21.9,21.4,00.0,31.1,23.6,14.3,-000.2,0006.59,0008.56,0006.52
2022-01-19 14:51:00,,0828.7,5.00,0.00,21.9,21.4,00.0,31.0,23.5,14.3,-000.6,0006.60,0008.55,0006.54
2022-01-19 14:52:00,,0828.7,4.99,0.00,21.9,21.3,00.0,31.0,23.5,14.4,-000.5,0006.59,0008.52,0006.53
2022-01-19 14:53:00,,0828.8,4.99,0.00,21.8,21.4,00.0,31.0,23.5,14.4,-000.6,0006.61,0008.52,0006.55
2022-01-19 14:54:00,,0829.0,5.01,0.00,21.9,22.0,00.0,31.0,23.7,14.3,-000.1,0006.61,0008.53,0006.56
2022-01-19 14:55:00,,0829.3,4.99,0.00,22.1,22.8,00.0,31.1,24.0,14.2,0000.5,0006.62,0008.54,0006.57
2022-01-19 14:56:00,,0829.2,4.99,0.00,22.2,23.0,00.0,31.1,24.2,14.0,0000.1,0006.59,0008.51,0006.54
2022-01-19 14:57:00,,0829.3,5.00,0.00,22.3,22.7,00.0,31.1,24.1,14.0,-000.2,0006.58,0008.52,0006.52
2022-01-19 14:58:00,,0829.2,4.99,0.00,22.2,22.5,00.0,31.1,24.0,14.0,-000.1,0006.56,0008.52,0006.49
2022-01-19 14:59:00,,0829.0,5.00,0.00,22.2,22.3,00.0,31.1,23.9,14.0,0000.6,0006.55,0008.50,0006.48
